Regional Weather Roundup
Issued by NWS Cleveland, OH

Home | Current Version | Previous Version | Text Only | Print | Product List | Glossary Off
Versions: 1 2 3 4 5 6 7 8 9 10 11 12 13 14 15 16 17 18 19 20 21 22 23 24 25 26 27 28 29 30 31 32 33 34 35 36 37 38 39 40 41 42 43 44 45 46 47 48 49 50

000
ASUS41 KCLE 230102
RWRCLE
OHIO REGIONAL WEATHER ROUNDUP
NATIONAL WEATHER SERVICE CLEVELAND, OH
900 PM EDT FRI MAY 22 2015

NOTE: "FAIR" INDICATES FEW OR NO CLOUDS BELOW 12,000 FEET WITH NO
SIGNIFICANT WEATHER AND/OR OBSTRUCTIONS TO VISIBILITY.

OHZ001>008-015>018-024>027-034-035-043-044-230200-
   NORTHWEST OHIO

CITY           SKY/WX    TMP DP  RH WIND       PRES   REMARKS
DEFIANCE       PTCLDY    62  37  39 CALM      30.25R
FINDLAY        PTCLDY    65  30  27 NW3       30.25R
TOLEDO EXPRESS PTCLDY    59  33  37 CALM      30.25R
TOLEDO EXEC    PTCLDY    59  36  42 E7        30.26R
LIMA           PTCLDY    61  38  42 N5        30.25R
$$

OHZ009>014-019>023-028>033-038-089-230200-
   NORTHEAST OHIO

CITY           SKY/WX    TMP DP  RH WIND       PRES   REMARKS
CLE-HOPKINS    PTCLDY    53  32  44 NE6       30.28S
CLE-LAKEFRONT  CLEAR     56  27  32 E8        30.26S
CUY CO. ARPT   PTCLDY    52  28  40 SE7       30.28S
LORAIN-ELYRIA  PTCLDY    54  34  46 E5        30.27R
ASHTABULA      CLEAR     47  33  58 CALM      30.30R
AKRON-CANTON   PTCLDY    53  32  44 NE6       30.27R
WOOSTER        PTCLDY    53  33  46 NE7       30.27R
MANSFIELD      PTCLDY    56  31  38 N6        30.26R
YOUNGSTOWN     PTCLDY    48  26  42 NE6       30.27F
$$

OHZ042-051>053-060>062-070>072-077>081-230200-
  SOUTHWEST OHIO

CITY           SKY/WX    TMP DP  RH WIND       PRES   REMARKS
CINC-COVINGTON CLOUDY    68  45  43 SW5       30.24R
CINC-LUNKEN    CLOUDY    65  47  52 SW6       30.23R
HAMILTON       CLOUDY    63  50  62 CALM      30.23R
DAYTON         MOCLDY    66  44  45 N7        30.24R
WRIGHT-PAT AFB MOCLDY    67  44  43 N6        30.23R
DAYTON GENERAL MOCLDY    67  44  43 N7        30.23R
WILMINGTON     MOCLDY    67  43  41 N6        30.23R
$$

OHZ036-037-039>041-045>050-054>059-063>069-073>076-082>088-230200-
  CENTRAL AND SOUTHEAST OHIO

CITY           SKY/WX    TMP DP  RH WIND       PRES   REMARKS
COLUMBUS       MOCLDY    65  38  36 N7        30.23R
OSU AIRPORT    PTCLDY    62  35  36 N7        30.23R
BOLTON FIELD   NOT AVBL
RICKENBACK AFB PTCLDY    65  43  44 N6        30.22R
NEWARK         PTCLDY    64  37  36 CALM      30.23R
MARION         PTCLDY    59  33  37 NE8       30.26R
LANCASTER      MOCLDY    63  53  70 CALM      30.24R
ZANESVILLE     PTCLDY    61  35  37 NE7       30.24R
NEW PHILLY     PTCLDY    60  33  36 N3        30.26R
$$


USA.gov is the U.S. government's official web portal to all federal, state and local government web resources and services.